Time,TemperatureF,DewpointF,PressureIn,WindDirection,WindDirectionDegrees,WindSpeedMPH,WindSpeedGustMPH,Humidity,HourlyPrecipIn,Conditions,Clouds,dailyrainin,SoftwareType,DateUTC
2013-01-11 00:09:00,64.7,61.0,30.13,SSE,155,10.0,-999.0,86,-99.99,,,0.02,weatherlink.com 1.10,2013-01-11 06:09:00,
2013-01-11 00:24:00,64.7,61.0,30.14,SSE,168,11.0,-999.0,86,-99.99,,,0.02,weatherlink.com 1.10,2013-01-11 06:24:00,
2013-01-11 00:39:00,64.9,61.0,30.13,SSE,163,5.0,-999.0,86,-99.99,,,0.02,weatherlink.com 1.10,2013-01-11 06:39:00,
2013-01-11 00:54:00,64.6,60.0,30.14,South,185,10.0,-999.0,86,-99.99,,,0.02,weatherlink.com 1.10,2013-01-11 06:54:00,
2013-01-11 01:09:00,64.5,60.0,30.14,South,180,10.0,-999.0,86,-99.99,,,0.02,weatherlink.com 1.10,2013-01-11 07:09:00,
2013-01-11 01:24:00,64.5,60.0,30.15,South,185,8.0,-999.0,86,-99.99,,,0.02,weatherlink.com 1.10,2013-01-11 07:24:00,
2013-01-11 01:39:00,64.5,60.0,30.14,South,181,9.0,-999.0,86,-99.99,,,0.02,weatherlink.com 1.10,2013-01-11 07:39:00,
2013-01-11 01:54:00,64.5,60.0,30.14,SSW,207,9.0,-999.0,86,-99.99,,,0.02,weatherlink.com 1.10,2013-01-11 07:54:00,
2013-01-11 02:09:00,64.6,60.0,30.14,South,175,18.0,-999.0,86,-99.99,,,0.02,weatherlink.com 1.10,2013-01-11 08:09:00,
2013-01-11 02:24:00,64.7,60.0,30.13,SSE,165,11.0,-999.0,85,-99.99,,,0.02,weatherlink.com 1.10,2013-01-11 08:24:00,
2013-01-11 02:39:00,64.7,60.0,30.14,South,190,12.0,-999.0,85,-99.99,,,0.02,weatherlink.com 1.10,2013-01-11 08:39:00,
2013-01-11 02:54:00,64.7,60.0,30.14,South,182,11.0,-999.0,85,-99.99,,,0.02,weatherlink.com 1.10,2013-01-11 08:54:00,
2013-01-11 03:09:00,64.6,60.0,30.14,SW,223,13.0,-999.0,85,-99.99,,,0.02,weatherlink.com 1.10,2013-01-11 09:09:00,
2013-01-11 03:24:00,64.5,60.0,30.13,SSE,158,9.0,-999.0,85,-99.99,,,0.02,weatherlink.com 1.10,2013-01-11 09:24:00,
2013-01-11 03:39:00,64.4,60.0,30.13,South,181,11.0,-999.0,86,-99.99,,,0.02,weatherlink.com 1.10,2013-01-11 09:39:00,
2013-01-11 03:54:00,64.2,60.0,30.13,SSE,158,6.0,-999.0,86,-99.99,,,0.02,weatherlink.com 1.10,2013-01-11 09:54:00,
2013-01-11 04:09:00,64.2,60.0,30.12,South,175,8.0,-999.0,86,-99.99,,,0.02,weatherlink.com 1.10,2013-01-11 10:09:00,
2013-01-11 04:24:00,64.0,60.0,30.12,SSE,162,9.0,-999.0,87,-99.99,,,0.02,weatherlink.com 1.10,2013-01-11 10:24:00,
2013-01-11 04:39:00,63.9,60.0,30.12,SSW,207,6.0,-999.0,87,-99.99,,,0.02,weatherlink.com 1.10,2013-01-11 10:39:00,
2013-01-11 04:54:00,63.4,60.0,30.12,SSE,162,7.0,-999.0,89,-99.99,,,0.02,weatherlink.com 1.10,2013-01-11 10:54:00,
2013-01-11 05:10:00,62.7,60.0,30.13,SSW,201,9.0,-999.0,91,-99.99,,,0.02,weatherlink.com 1.10,2013-01-11 11:10:00,
2013-01-11 05:25:00,62.3,60.0,30.13,South,184,4.0,-999.0,93,-99.99,,,0.02,weatherlink.com 1.10,2013-01-11 11:25:00,
2013-01-11 05:40:00,62.3,60.0,30.14,South,189,10.0,-999.0,93,-99.99,,,0.02,weatherlink.com 1.10,2013-01-11 11:40:00,
2013-01-11 05:55:00,62.0,60.0,30.14,SSW,192,5.0,-999.0,94,-99.99,,,0.02,weatherlink.com 1.10,2013-01-11 11:55:00,
2013-01-11 06:10:00,62.0,60.0,30.15,South,175,11.0,-999.0,94,-99.99,,,0.02,weatherlink.com 1.10,2013-01-11 12:10:00,
2013-01-11 06:25:00,61.9,61.0,30.16,SSW,200,5.0,-999.0,95,-99.99,,,0.03,weatherlink.com 1.10,2013-01-11 12:25:00,
2013-01-11 06:40:00,61.8,60.0,30.16,SSW,206,8.0,-999.0,95,-99.99,,,0.03,weatherlink.com 1.10,2013-01-11 12:40:00,
2013-01-11 06:55:00,61.8,60.0,30.16,SSW,212,6.0,-999.0,95,-99.99,,,0.03,weatherlink.com 1.10,2013-01-11 12:55:00,
2013-01-11 07:10:00,61.7,60.0,30.16,SSW,198,10.0,-999.0,95,-99.99,,,0.04,weatherlink.com 1.10,2013-01-11 13:10:00,
2013-01-11 07:25:00,61.6,60.0,30.16,South,180,2.0,-999.0,95,-99.99,,,0.04,weatherlink.com 1.10,2013-01-11 13:25:00,
2013-01-11 07:40:00,61.6,60.0,30.17,South,179,12.0,-999.0,95,-99.99,,,0.04,weatherlink.com 1.10,2013-01-11 13:40:00,
2013-01-11 07:55:00,61.7,60.0,30.16,South,179,8.0,-999.0,95,-99.99,,,0.04,weatherlink.com 1.10,2013-01-11 13:55:00,
2013-01-11 08:10:00,61.8,60.0,30.17,SSW,192,12.0,-999.0,95,-99.99,,,0.04,weatherlink.com 1.10,2013-01-11 14:10:00,
2013-01-11 08:25:00,62.2,61.0,30.18,SSE,161,10.0,-999.0,95,-99.99,,,0.04,weatherlink.com 1.10,2013-01-11 14:25:00,
2013-01-11 08:40:00,62.5,61.0,30.18,SSW,194,11.0,-999.0,94,-99.99,,,0.04,weatherlink.com 1.10,2013-01-11 14:40:00,
2013-01-11 08:55:00,62.4,61.0,30.19,SSW,203,10.0,-999.0,94,-99.99,,,0.04,weatherlink.com 1.10,2013-01-11 14:55:00,
2013-01-11 09:10:00,62.2,61.0,30.19,SSW,208,10.0,-999.0,95,-99.99,,,0.04,weatherlink.com 1.10,2013-01-11 15:10:00,
2013-01-11 09:25:00,62.3,61.0,30.19,SSW,198,5.0,-999.0,95,-99.99,,,0.04,weatherlink.com 1.10,2013-01-11 15:25:00,
2013-01-11 09:40:00,62.3,61.0,30.19,SSW,199,13.0,-999.0,95,-99.99,,,0.04,weatherlink.com 1.10,2013-01-11 15:40:00,
2013-01-11 09:55:00,62.5,61.0,30.20,South,185,12.0,-999.0,95,-99.99,,,0.04,weatherlink.com 1.10,2013-01-11 15:55:00,
2013-01-11 10:10:00,62.7,61.0,30.19,South,184,7.0,-999.0,95,-99.99,,,0.04,weatherlink.com 1.10,2013-01-11 16:10:00,
2013-01-11 10:25:00,63.1,62.0,30.18,SSW,193,9.0,-999.0,95,-99.99,,,0.04,weatherlink.com 1.10,2013-01-11 16:25:00,
2013-01-11 10:40:00,63.6,62.0,30.17,South,189,5.0,-999.0,94,-99.99,,,0.04,weatherlink.com 1.10,2013-01-11 16:40:00,
2013-01-11 10:55:00,64.4,62.0,30.17,South,188,9.0,-999.0,93,-99.99,,,0.04,weatherlink.com 1.10,2013-01-11 16:55:00,
2013-01-11 11:10:00,64.9,63.0,30.16,SSW,206,5.0,-999.0,92,-99.99,,,0.04,weatherlink.com 1.10,2013-01-11 17:10:00,
2013-01-11 11:25:00,65.1,63.0,30.15,SSW,197,7.0,-999.0,92,-99.99,,,0.05,weatherlink.com 1.10,2013-01-11 17:25:00,
2013-01-11 11:40:00,65.2,63.0,30.14,South,178,4.0,-999.0,91,-99.99,,,0.05,weatherlink.com 1.10,2013-01-11 17:40:00,
2013-01-11 11:55:00,65.1,63.0,30.14,SSW,193,6.0,-999.0,91,-99.99,,,0.05,weatherlink.com 1.10,2013-01-11 17:55:00,
2013-01-11 12:10:00,65.0,62.0,30.14,SSW,209,6.0,-999.0,91,-99.99,,,0.05,weatherlink.com 1.10,2013-01-11 18:10:00,
2013-01-11 12:25:00,64.8,62.0,30.14,South,189,10.0,-999.0,91,-99.99,,,0.05,weatherlink.com 1.10,2013-01-11 18:25:00,
2013-01-11 12:40:00,64.1,62.0,30.14,SSW,209,8.0,-999.0,93,-99.99,,,0.00,weatherlink.com 1.10,2013-01-11 18:40:00,
2013-01-11 12:55:00,63.8,62.0,30.13,South,191,4.0,-999.0,94,-99.99,,,0.01,weatherlink.com 1.10,2013-01-11 18:55:00,
2013-01-11 13:10:00,63.5,62.0,30.13,South,188,6.0,-999.0,95,-99.99,,,0.01,weatherlink.com 1.10,2013-01-11 19:10:00,
2013-01-11 13:25:00,63.7,63.0,30.12,SSW,202,7.0,-999.0,96,-99.99,,,0.01,weatherlink.com 1.10,2013-01-11 19:25:00,
2013-01-11 13:40:00,64.0,63.0,30.12,South,178,7.0,-999.0,96,-99.99,,,0.01,weatherlink.com 1.10,2013-01-11 19:40:00,
2013-01-11 13:55:00,64.1,63.0,30.12,SSE,167,4.0,-999.0,95,-99.99,,,0.01,weatherlink.com 1.10,2013-01-11 19:55:00,
2013-01-11 14:25:00,64.0,63.0,30.12,SSE,161,8.0,-999.0,95,-99.99,,,0.01,weatherlink.com 1.10,2013-01-11 20:25:00,
2013-01-11 14:40:00,63.9,63.0,30.12,South,171,1.0,-999.0,95,-99.99,,,0.01,weatherlink.com 1.10,2013-01-11 20:40:00,
2013-01-11 14:55:00,64.2,63.0,30.12,South,180,3.0,-999.0,96,-99.99,,,0.02,weatherlink.com 1.10,2013-01-11 20:55:00,
2013-01-11 15:10:00,64.1,63.0,30.13,SSW,193,5.0,-999.0,95,-99.99,,,0.02,weatherlink.com 1.10,2013-01-11 21:10:00,
2013-01-11 15:25:00,64.0,63.0,30.12,SSW,209,5.0,-999.0,95,-99.99,,,0.02,weatherlink.com 1.10,2013-01-11 21:25:00,
2013-01-11 15:40:00,63.8,63.0,30.12,South,182,5.0,-999.0,96,-99.99,,,0.03,weatherlink.com 1.10,2013-01-11 21:40:00,
2013-01-11 15:55:00,63.7,63.0,30.12,South,175,0.0,-999.0,96,-99.99,,,0.04,weatherlink.com 1.10,2013-01-11 21:55:00,
2013-01-11 16:10:00,63.5,62.0,30.12,South,182,0.0,-999.0,96,-99.99,,,0.04,weatherlink.com 1.10,2013-01-11 22:10:00,
2013-01-11 16:25:00,63.4,62.0,30.13,SSW,202,2.0,-999.0,96,-99.99,,,0.05,weatherlink.com 1.10,2013-01-11 22:25:00,
2013-01-11 16:40:00,63.4,62.0,30.12,SSW,207,8.0,-999.0,96,-99.99,,,0.05,weatherlink.com 1.10,2013-01-11 22:40:00,
2013-01-11 16:55:00,63.4,62.0,30.13,South,182,6.0,-999.0,96,-99.99,,,0.05,weatherlink.com 1.10,2013-01-11 22:55:00,
2013-01-11 17:10:00,63.3,62.0,30.13,South,191,8.0,-999.0,96,-99.99,,,0.06,weatherlink.com 1.10,2013-01-11 23:10:00,
2013-01-11 17:25:00,63.3,62.0,30.13,SSW,196,3.0,-999.0,96,-99.99,,,0.07,weatherlink.com 1.10,2013-01-11 23:25:00,
2013-01-11 17:40:00,63.2,62.0,30.13,South,184,4.0,-999.0,97,-99.99,,,0.07,weatherlink.com 1.10,2013-01-11 23:40:00,
2013-01-11 17:55:00,63.1,62.0,30.13,South,172,0.0,-999.0,97,-99.99,,,0.08,weatherlink.com 1.10,2013-01-11 23:55:00,
2013-01-11 18:10:00,63.1,62.0,30.13,South,176,0.0,-999.0,96,-99.99,,,0.09,weatherlink.com 1.10,2013-01-12 00:10:00,
2013-01-11 18:25:00,63.1,62.0,30.13,South,177,0.0,-999.0,97,-99.99,,,0.10,weatherlink.com 1.10,2013-01-12 00:25:00,
2013-01-11 18:40:00,63.0,62.0,30.13,South,177,0.0,-999.0,97,-99.99,,,0.11,weatherlink.com 1.10,2013-01-12 00:40:00,
2013-01-11 18:55:00,63.0,62.0,30.13,SE,124,0.0,-999.0,97,-99.99,,,0.12,weatherlink.com 1.10,2013-01-12 00:55:00,
2013-01-11 19:10:00,63.1,62.0,30.12,WSW,238,14.0,-999.0,97,-99.99,,,0.13,weatherlink.com 1.10,2013-01-12 01:10:00,
2013-01-11 19:25:00,63.1,62.0,30.13,WNW,289,0.0,-999.0,97,-99.99,,,0.14,weatherlink.com 1.10,2013-01-12 01:25:00,
2013-01-11 19:40:00,63.3,63.0,30.13,South,177,4.0,-999.0,97,-99.99,,,0.15,weatherlink.com 1.10,2013-01-12 01:40:00,
2013-01-11 19:55:00,63.8,63.0,30.13,SSW,196,6.0,-999.0,97,-99.99,,,0.17,weatherlink.com 1.10,2013-01-12 01:55:00,
2013-01-11 20:10:00,63.7,63.0,30.13,SSE,157,4.0,-999.0,97,-99.99,,,0.18,weatherlink.com 1.10,2013-01-12 02:10:00,
2013-01-11 20:25:00,63.6,63.0,30.14,SSE,159,0.0,-999.0,97,-99.99,,,0.19,weatherlink.com 1.10,2013-01-12 02:25:00,
2013-01-11 20:40:00,63.5,63.0,30.14,SSW,205,1.0,-999.0,97,-99.99,,,0.19,weatherlink.com 1.10,2013-01-12 02:40:00,
2013-01-11 20:55:00,63.6,63.0,30.14,SSW,196,5.0,-999.0,97,-99.99,,,0.20,weatherlink.com 1.10,2013-01-12 02:55:00,
2013-01-11 21:10:00,63.5,63.0,30.14,SSE,166,2.0,-999.0,97,-99.99,,,0.21,weatherlink.com 1.10,2013-01-12 03:10:00,
2013-01-11 21:25:00,63.5,63.0,30.14,SSE,167,4.0,-999.0,97,-99.99,,,0.22,weatherlink.com 1.10,2013-01-12 03:25:00,
2013-01-11 21:40:00,63.5,63.0,30.14,SSE,158,1.0,-999.0,97,-99.99,,,0.22,weatherlink.com 1.10,2013-01-12 03:40:00,
2013-01-11 21:55:00,63.5,63.0,30.14,SSE,148,0.0,-999.0,97,-99.99,,,0.23,weatherlink.com 1.10,2013-01-12 03:55:00,
2013-01-11 22:10:00,63.7,63.0,30.14,South,171,4.0,-999.0,97,-99.99,,,0.24,weatherlink.com 1.10,2013-01-12 04:10:00,
2013-01-11 22:25:00,63.9,63.0,30.14,South,173,6.0,-999.0,97,-99.99,,,0.24,weatherlink.com 1.10,2013-01-12 04:25:00,
2013-01-11 22:40:00,63.8,63.0,30.13,SSE,166,4.0,-999.0,97,-99.99,,,0.25,weatherlink.com 1.10,2013-01-12 04:40:00,
2013-01-11 22:55:00,64.0,63.0,30.13,SW,214,5.0,-999.0,97,-99.99,,,0.25,weatherlink.com 1.10,2013-01-12 04:55:00,
2013-01-11 23:10:00,64.2,63.0,30.13,South,177,4.0,-999.0,97,-99.99,,,0.25,weatherlink.com 1.10,2013-01-12 05:10:00,
2013-01-11 23:25:00,64.2,63.0,30.12,South,182,5.0,-999.0,97,-99.99,,,0.26,weatherlink.com 1.10,2013-01-12 05:25:00,
2013-01-11 23:40:00,64.3,63.0,30.13,SSE,157,4.0,-999.0,96,-99.99,,,0.26,weatherlink.com 1.10,2013-01-12 05:40:00,
2013-01-11 23:55:00,64.5,63.0,30.12,SSW,194,7.0,-999.0,96,-99.99,,,0.26,weatherlink.com 1.10,2013-01-12 05:55:00,